Location: Penzberg
(47.7615°N, 11.3159°E)
Time: 03:43:04
(UTC+02:00)

ISS - Pass Details

Date: 05 January 2018
Orbit: 401 x 409 km, 51.6° (Epoch: 20 August)

Event Time Altitude Azimuth Distance (km) Brightness Sun altitude
Exits shadow 06:03:19 42° 359° (N) 613 -3.1 -19.3°
Drops below altitude 10° 06:06:30 10° 68° (ENE) 1,515 -0.2 -18.7°
Sets 06:08:41 0° 75° (ENE) 2,385 1.2 -18.4°
